DW7000 Weather Reports


time (UTC)temp
C
wind
direction
speed
KPH
gust
KPH
rain 1hr
cm
rain 24hr
cm
rain mn
cm
humidity
%
barometer
mb
20260505100042 11 117 0.0 0.0 0.00 0.00 0.00 72 1012.5
20260505094540 12 117 0.0 0.0 0.00 0.00 0.00 69 1012.3
20260505093035 12 116 0.0 0.0 0.00 0.00 0.00 66 1012.4
20260505091534 12 116 0.0 0.0 0.00 0.00 0.00 66 1012.4
20260505090036 13 148 0.0 0.0 0.00 0.00 0.00 64 1012.2
20260505084527 15 120 0.0 0.0 0.00 0.00 0.00 55 1012.1
20260505083024 15 186 0.0 0.0 0.00 0.00 0.00 52 1011.9
20260505081537 15 162 0.0 1.6 0.00 0.00 0.00 51 1011.8
20260505080023 15 330 0.0 1.6 0.00 0.00 0.00 51 1011.9
20260505074522 15 158 0.0 1.6 0.00 0.00 0.00 51 1011.8
20260505073023 15 158 0.0 0.0 0.00 0.00 0.00 52 1012.0
20260505071539 15 129 0.0 6.4 0.00 0.00 0.00 53 1012.1
20260505070018 15 158 0.0 1.6 0.00 0.00 0.00 54 1012.1
20260505064522 15 235 0.0 0.0 0.00 0.00 0.00 56 1012.3
20260505063015 15 136 0.0 0.0 0.00 0.00 0.00 57 1012.3
20260505061513 15 208 0.0 0.0 0.00 0.00 0.00 59 1012.4
20260505060011 15 143 0.0 0.0 0.00 0.00 0.00 59 1012.5
20260505054511 15 122 0.0 1.6 0.00 0.00 0.00 58 1012.4
20260505053012 15 170 0.0 4.8 0.00 0.00 0.00 59 1012.5
20260505051509 15 134 0.0 0.0 0.00 0.00 0.00 58 1012.5
20260505041503 16 150 0.0 0.0 0.00 0.00 0.00 57 1012.6
20260505040106 16 198 0.0 0.0 0.00 0.00 0.00 56 1012.7
20260505034558 16 180 0.0 0.0 0.00 0.00 0.00 56 1012.8
20260505033100 16 114 0.0 4.8 0.00 0.00 0.00 55 1012.8
20260505031559 16 155 0.0 0.0 0.00 0.00 0.00 54 1013.0
20260505030103 16 155 0.0 0.0 0.00 0.00 0.00 53 1012.9
20260505024557 17 140 0.0 0.0 0.00 0.00 0.00 52 1012.8
20260505023058 17 127 0.0 0.0 0.00 0.00 0.00 52 1012.9
20260505021559 17 148 0.0 0.0 0.00 0.00 0.00 52 1012.7
20260505020058 17 150 0.0 0.0 0.00 0.00 0.00 52 1012.6
20260505014554 16 144 0.0 0.0 0.00 0.00 0.00 53 1012.5
20260505013053 17 129 0.0 0.0 0.00 0.00 0.00 52 1012.4
20260505011555 17 125 0.0 0.0 0.00 0.00 0.00 50 1012.2
20260505010100 17 139 0.0 0.0 0.00 0.00 0.00 49 1012.2
20260505004552 17 144 0.0 0.0 0.00 0.00 0.00 49 1012.1
20260505003051 17 169 0.0 0.0 0.00 0.00 0.00 49 1012.1
20260505001551 18 158 0.0 0.0 0.00 0.00 0.00 48 1012.0
20260505000055 18 136 0.0 0.0 0.00 0.00 0.00 46 1011.9
20260504234549 19 230 0.0 0.0 0.00 0.00 0.00 45 1011.8
20260504233052 20 170 0.0 0.0 0.00 0.00 0.00 44 1011.6
20260504231546 21 195 0.0 0.0 0.00 0.00 0.00 44 1011.6
20260504230047 21 256 0.0 0.0 0.00 0.00 0.00 44 1011.5
20260504224548 21 156 0.0 4.8 0.00 0.00 0.00 42 1011.5
20260504223044 21 193 0.0 4.8 0.00 0.00 0.00 40 1011.5
20260504221544 22 203 0.0 1.6 0.00 0.00 0.00 40 1011.5
20260504220055 22 194 0.0 6.4 0.00 0.00 0.00 38 1011.6
20260504214550 22 159 0.0 3.2 0.00 0.00 0.00 37 1011.5
20260504213048 22 153 0.0 3.2 0.00 0.00 0.00 37 1011.5
20260504211539 22 150 0.0 1.6 0.00 0.00 0.00 36 1011.6
20260504210038 23 157 0.0 3.2 0.00 0.00 0.00 34 1011.7
20260504204536 23 239 0.0 1.6 0.00 0.00 0.00 36 1011.8
20260504203036 23 191 0.0 8.0 0.00 0.00 0.00 34 1011.7
20260504201534 23 142 0.0 3.2 0.00 0.00 0.00 31 1012.0
20260504200040 23 134 0.0 0.0 0.00 0.00 0.00 34 1012.1
20260504194531 23 132 0.0 0.0 0.00 0.00 0.00 31 1012.3
20260504193028 23 207 0.0 1.6 0.00 0.00 0.00 31 1012.5
20260504191538 23 136 0.0 0.0 0.00 0.00 0.00 29 1012.7
20260504190024 23 145 0.0 1.6 0.00 0.00 0.00 30 1012.9
20260504184523 23 203 0.0 3.2 0.00 0.00 0.00 33 1013.1
20260504183035 23 191 0.0 3.2 0.00 0.00 0.00 31 1013.3
20260504181523 22 167 0.0 0.0 0.00 0.00 0.00 31 1013.4
20260504180020 22 214 0.0 0.0 0.00 0.00 0.00 32 1013.5
20260504174516 22 119 0.0 1.6 0.00 0.00 0.00 33 1013.7
20260504173012 23 210 0.0 0.0 0.00 0.00 0.00 34 1013.8
20260504171510 22 150 0.0 0.0 0.00 0.00 0.00 35 1013.9